| time (UTC) | temp F | wind direction | speed MPH | gust MPH | rain 1hr in | rain 24hr in | rain mn in | humidity % | barometer mb |
| 20260902080851 | 74 | 184 | 7.0 | 10.0 | 0.00 | 0.00 | 0.00 | 52 | 1018.4 |
| 20260902080347 | 74 | 167 | 10.0 | 11.0 | 0.00 | 0.00 | 0.00 | 51 | 1018.4 |
| 20260902075846 | 74 | 185 | 9.0 | 11.0 | 0.00 | 0.00 | 0.00 | 51 | 1018.2 |
| 20260902075342 | 74 | 169 | 7.0 | 12.0 | 0.00 | 0.00 | 0.00 | 51 | 1018.2 |
| 20260902074838 | 74 | 163 | 5.0 | 9.0 | 0.00 | 0.00 | 0.00 | 51 | 1018.6 |
| 20260902074333 | 74 | 165 | 8.0 | 10.0 | 0.00 | 0.00 | 0.00 | 51 | 1018.4 |
| 20260902073828 | 74 | 161 | 5.0 | 9.0 | 0.00 | 0.00 | 0.00 | 52 | 1018.4 |
| 20260902073324 | 74 | 168 | 6.0 | 10.0 | 0.00 | 0.00 | 0.00 | 51 | 1018.5 |
| 20260902072820 | 74 | 168 | 8.0 | 9.0 | 0.00 | 0.00 | 0.00 | 51 | 1018.5 |
| 20260902072315 | 75 | 162 | 7.0 | 11.0 | 0.00 | 0.00 | 0.00 | 50 | 1018.4 |
| 20260902071812 | 75 | 166 | 8.0 | 11.0 | 0.00 | 0.00 | 0.00 | 50 | 1018.7 |
| 20260902071306 | 75 | 168 | 7.0 | 10.0 | 0.00 | 0.00 | 0.00 | 50 | 1018.6 |
| 20260902070803 | 76 | 166 | 7.0 | 12.0 | 0.00 | 0.00 | 0.00 | 49 | 1018.2 |
| 20260902070302 | 76 | 168 | 6.0 | 12.0 | 0.00 | 0.00 | 0.00 | 49 | 1018.2 |
| 20260902065801 | 76 | 173 | 8.0 | 13.0 | 0.00 | 0.00 | 0.00 | 49 | 1018.0 |
| 20260902065256 | 76 | 165 | 6.0 | 11.0 | 0.00 | 0.00 | 0.00 | 49 | 1018.2 |
| 20260902064752 | 76 | 161 | 9.0 | 12.0 | 0.00 | 0.00 | 0.00 | 49 | 1018.1 |
| 20260902064248 | 75 | 158 | 8.0 | 12.0 | 0.00 | 0.00 | 0.00 | 50 | 1018.5 |
| 20260902063743 | 76 | 162 | 7.0 | 12.0 | 0.00 | 0.00 | 0.00 | 49 | 1018.2 |
| 20260902063238 | 75 | 156 | 8.0 | 13.0 | 0.00 | 0.00 | 0.00 | 50 | 1018.1 |
| 20260902062737 | 75 | 155 | 11.0 | 14.0 | 0.00 | 0.00 | 0.00 | 49 | 1018.0 |
| 20260902062232 | 76 | 155 | 10.0 | 12.0 | 0.00 | 0.00 | 0.00 | 49 | 1018.4 |
| 20260902061731 | 76 | 155 | 9.0 | 13.0 | 0.00 | 0.00 | 0.00 | 49 | 1018.4 |
| 20260902061227 | 76 | 159 | 12.0 | 14.0 | 0.00 | 0.00 | 0.00 | 48 | 1018.2 |
| 20260902060724 | 77 | 158 | 9.0 | 15.0 | 0.00 | 0.00 | 0.00 | 48 | 1018.4 |
| 20260902060219 | 77 | 154 | 10.0 | 15.0 | 0.00 | 0.00 | 0.00 | 48 | 1018.1 |
| 20260902055715 | 77 | 157 | 10.0 | 15.0 | 0.00 | 0.00 | 0.00 | 48 | 1018.1 |
| 20260902055211 | 77 | 161 | 10.0 | 15.0 | 0.00 | 0.00 | 0.00 | 48 | 1018.2 |
| 20260902054706 | 77 | 157 | 13.0 | 14.0 | 0.00 | 0.00 | 0.00 | 48 | 1018.4 |
| 20260902054202 | 77 | 158 | 9.0 | 15.0 | 0.00 | 0.00 | 0.00 | 48 | 1018.2 |
| 20260902053657 | 77 | 156 | 11.0 | 15.0 | 0.00 | 0.00 | 0.00 | 48 | 1018.4 |
| 20260902053156 | 77 | 159 | 10.0 | 13.0 | 0.00 | 0.00 | 0.00 | 48 | 1018.4 |
| 20260902052656 | 77 | 156 | 9.0 | 13.0 | 0.00 | 0.00 | 0.00 | 48 | 1018.6 |
| 20260902052151 | 77 | 162 | 12.0 | 12.0 | 0.00 | 0.00 | 0.00 | 48 | 1018.2 |
| 20260902051650 | 78 | 156 | 8.0 | 15.0 | 0.00 | 0.00 | 0.00 | 47 | 1018.2 |
| 20260902051145 | 78 | 164 | 9.0 | 14.0 | 0.00 | 0.00 | 0.00 | 47 | 1018.1 |
| 20260902050639 | 78 | 161 | 8.0 | 13.0 | 0.00 | 0.00 | 0.00 | 47 | 1018.5 |
| 20260902050135 | 78 | 153 | 11.0 | 13.0 | 0.00 | 0.00 | 0.00 | 47 | 1018.2 |
| 20260902045629 | 78 | 155 | 9.0 | 13.0 | 0.00 | 0.00 | 0.00 | 47 | 1018.5 |
| 20260902045126 | 78 | 157 | 10.0 | 13.0 | 0.00 | 0.00 | 0.00 | 46 | 1018.6 |
| 20260902044625 | 79 | 146 | 8.0 | 14.0 | 0.00 | 0.00 | 0.00 | 46 | 1018.4 |
| 20260902044122 | 79 | 154 | 8.0 | 14.0 | 0.00 | 0.00 | 0.00 | 45 | 1018.4 |
| 20260902043617 | 79 | 156 | 12.0 | 14.0 | 0.00 | 0.00 | 0.00 | 45 | 1018.2 |
| 20260902043112 | 79 | 154 | 11.0 | 13.0 | 0.00 | 0.00 | 0.00 | 45 | 1018.1 |
| 20260902042611 | 79 | 155 | 10.0 | 15.0 | 0.00 | 0.00 | 0.00 | 45 | 1018.2 |
| 20260902042107 | 80 | 146 | 9.0 | 15.0 | 0.00 | 0.00 | 0.00 | 45 | 1018.5 |
| 20260902041606 | 80 | 143 | 11.0 | 15.0 | 0.00 | 0.00 | 0.00 | 44 | 1018.4 |
| 20260902041101 | 80 | 150 | 7.0 | 15.0 | 0.00 | 0.00 | 0.00 | 45 | 1018.4 |
| 20260902040555 | 80 | 147 | 10.0 | 16.0 | 0.00 | 0.00 | 0.00 | 44 | 1018.2 |
| 20260902040050 | 80 | 154 | 8.0 | 13.0 | 0.00 | 0.00 | 0.00 | 44 | 1018.5 |
| 20260902035543 | 81 | 152 | 8.0 | 12.0 | 0.00 | 0.00 | 0.00 | 43 | 1018.2 |
| 20260902035039 | 81 | 158 | 9.0 | 14.0 | 0.00 | 0.00 | 0.00 | 43 | 1018.2 |
| 20260902034538 | 81 | 159 | 11.0 | 13.0 | 0.00 | 0.00 | 0.00 | 43 | 1018.2 |
| 20260902034037 | 81 | 164 | 8.0 | 14.0 | 0.00 | 0.00 | 0.00 | 43 | 1018.1 |
| 20260902033537 | 81 | 151 | 9.0 | 12.0 | 0.00 | 0.00 | 0.00 | 42 | 1018.2 |
| 20260902033031 | 82 | 156 | 13.0 | 15.0 | 0.00 | 0.00 | 0.00 | 42 | 1018.0 |
| 20260902032525 | 81 | 156 | 9.0 | 12.0 | 0.00 | 0.00 | 0.00 | 42 | 1018.1 |
| 20260902032020 | 81 | 149 | 10.0 | 13.0 | 0.00 | 0.00 | 0.00 | 42 | 1018.0 |
| 20260902031514 | 82 | 161 | 9.0 | 13.0 | 0.00 | 0.00 | 0.00 | 41 | 1018.1 |
| 20260902031010 | 82 | 151 | 9.0 | 14.0 | 0.00 | 0.00 | 0.00 | 41 | 1018.1 |
| 20260902030505 | 82 | 155 | 9.0 | 12.0 | 0.00 | 0.00 | 0.00 | 41 | 1017.8 |
| 20260902030005 | 82 | 160 | 8.0 | 12.0 | 0.00 | 0.00 | 0.00 | 41 | 1017.7 |
| 20260902025459 | 82 | 156 | 9.0 | 13.0 | 0.00 | 0.00 | 0.00 | 40 | 1017.9 |
| 20260902024954 | 82 | 149 | 7.0 | 12.0 | 0.00 | 0.00 | 0.00 | 40 | 1017.7 |
| 20260902024449 | 82 | 153 | 8.0 | 11.0 | 0.00 | 0.00 | 0.00 | 40 | 1017.7 |
| 20260902023944 | 82 | 156 | 8.0 | 12.0 | 0.00 | 0.00 | 0.00 | 40 | 1017.8 |
| 20260902023441 | 83 | 147 | 9.0 | 12.0 | 0.00 | 0.00 | 0.00 | 40 | 1017.5 |
| 20260902022939 | 83 | 144 | 9.0 | 12.0 | 0.00 | 0.00 | 0.00 | 40 | 1017.5 |
| 20260902022435 | 83 | 154 | 7.0 | 11.0 | 0.00 | 0.00 | 0.00 | 40 | 1017.7 |
| 20260902021930 | 84 | 150 | 8.0 | 10.0 | 0.00 | 0.00 | 0.00 | 39 | 1017.6 |
| 20260902021425 | 84 | 151 | 6.0 | 11.0 | 0.00 | 0.00 | 0.00 | 39 | 1017.6 |
| 20260902020921 | 84 | 157 | 8.0 | 9.0 | 0.00 | 0.00 | 0.00 | 39 | 1017.6 |
| 20260902020417 | 84 | 153 | 9.0 | 12.0 | 0.00 | 0.00 | 0.00 | 39 | 1017.3 |
| 20260902015912 | 84 | 157 | 6.0 | 8.0 | 0.00 | 0.00 | 0.00 | 39 | 1017.3 |
| 20260902015408 | 84 | 155 | 8.0 | 9.0 | 0.00 | 0.00 | 0.00 | 39 | 1017.3 |
| 20260902014903 | 84 | 154 | 6.0 | 10.0 | 0.00 | 0.00 | 0.00 | 38 | 1017.5 |
| 20260902014400 | 84 | 166 | 4.0 | 8.0 | 0.00 | 0.00 | 0.00 | 39 | 1017.3 |
| 20260902013858 | 85 | 156 | 6.0 | 9.0 | 0.00 | 0.00 | 0.00 | 38 | 1017.3 |
| 20260902013354 | 85 | 155 | 6.0 | 8.0 | 0.00 | 0.00 | 0.00 | 38 | 1017.5 |
| 20260902012850 | 85 | 159 | 7.0 | 9.0 | 0.00 | 0.00 | 0.00 | 37 | 1017.3 |
| 20260902012345 | 86 | 153 | 6.0 | 9.0 | 0.00 | 0.00 | 0.00 | 37 | 1017.2 |
| 20260902011841 | 86 | 153 | 5.0 | 9.0 | 0.00 | 0.00 | 0.00 | 37 | 1017.2 |
| 20260902011335 | 86 | 157 | 6.0 | 9.0 | 0.00 | 0.00 | 0.00 | 36 | 1016.9 |
| 20260902010834 | 86 | 166 | 6.0 | 9.0 | 0.00 | 0.00 | 0.00 | 36 | 1017.0 |
| 20260902010329 | 87 | 166 | 7.0 | 9.0 | 0.00 | 0.00 | 0.00 | 35 | 1016.9 |
| 20260902005828 | 87 | 171 | 7.0 | 11.0 | 0.00 | 0.00 | 0.00 | 35 | 1016.9 |
| 20260902005323 | 89 | 169 | 7.0 | 13.0 | 0.00 | 0.00 | 0.00 | 34 | 1017.0 |
| 20260902004818 | 89 | 162 | 8.0 | 12.0 | 0.00 | 0.00 | 0.00 | 34 | 1017.0 |
| 20260902004314 | 89 | 174 | 9.0 | 13.0 | 0.00 | 0.00 | 0.00 | 34 | 1016.9 |
| 20260902003813 | 90 | 165 | 10.0 | 12.0 | 0.00 | 0.00 | 0.00 | 33 | 1016.9 |
| 20260902003309 | 90 | 160 | 10.0 | 13.0 | 0.00 | 0.00 | 0.00 | 33 | 1016.7 |
| 20260902002805 | 90 | 166 | 9.0 | 14.0 | 0.00 | 0.00 | 0.00 | 33 | 1016.6 |
| 20260902002259 | 91 | 169 | 9.0 | 15.0 | 0.00 | 0.00 | 0.00 | 32 | 1016.7 |
| 20260902001755 | 91 | 167 | 12.0 | 15.0 | 0.00 | 0.00 | 0.00 | 32 | 1016.8 |
| 20260902001249 | 91 | 162 | 13.0 | 16.0 | 0.00 | 0.00 | 0.00 | 31 | 1016.6 |
| 20260902000743 | 91 | 181 | 9.0 | 14.0 | 0.00 | 0.00 | 0.00 | 32 | 1016.7 |
| 20260902000238 | 92 | 189 | 12.0 | 18.0 | 0.00 | 0.00 | 0.00 | 31 | 1016.6 |
| 20260901235733 | 93 | 177 | 15.0 | 20.0 | 0.00 | 0.00 | 0.00 | 30 | 1016.6 |
| 20260901235229 | 93 | 184 | 9.0 | 16.0 | 0.00 | 0.00 | 0.00 | 30 | 1016.6 |
| 20260901234727 | 92 | 173 | 10.0 | 17.0 | 0.00 | 0.00 | 0.00 | 29 | 1016.7 |
| 20260901234222 | 92 | 202 | 13.0 | 18.0 | 0.00 | 0.00 | 0.00 | 29 | 1016.6 |
| 20260901233716 | 94 | 183 | 9.0 | 17.0 | 0.00 | 0.00 | 0.00 | 29 | 1016.5 |
| 20260901233212 | 93 | 180 | 15.0 | 18.0 | 0.00 | 0.00 | 0.00 | 28 | 1016.2 |
| 20260901232707 | 93 | 177 | 12.0 | 17.0 | 0.00 | 0.00 | 0.00 | 29 | 1016.1 |
| 20260901232202 | 94 | 205 | 14.0 | 15.0 | 0.00 | 0.00 | 0.00 | 27 | 1016.3 |
| 20260901231659 | 94 | 208 | 14.0 | 20.0 | 0.00 | 0.00 | 0.00 | 28 | 1016.3 |
| 20260901231154 | 94 | 189 | 7.0 | 11.0 | 0.00 | 0.00 | 0.00 | 28 | 1016.3 |
| 20260901230650 | 93 | 190 | 13.0 | 18.0 | 0.00 | 0.00 | 0.00 | 28 | 1016.2 |
| 20260901230150 | 93 | 193 | 16.0 | 19.0 | 0.00 | 0.00 | 0.00 | 29 | 1016.3 |
| 20260901225645 | 93 | 202 | 9.0 | 12.0 | 0.00 | 0.00 | 0.00 | 28 | 1016.3 |
| 20260901225139 | 94 | 201 | 13.0 | 20.0 | 0.00 | 0.00 | 0.00 | 28 | 1016.3 |
| 20260901224636 | 94 | 183 | 10.0 | 17.0 | 0.00 | 0.00 | 0.00 | 27 | 1016.6 |
| 20260901224132 | 93 | 207 | 12.0 | 18.0 | 0.00 | 0.00 | 0.00 | 28 | 1016.7 |
| 20260901223627 | 93 | 217 | 15.0 | 21.0 | 0.00 | 0.00 | 0.00 | 28 | 1016.3 |
| 20260901223122 | 94 | 157 | 9.0 | 15.0 | 0.00 | 0.00 | 0.00 | 27 | 1016.6 |
| 20260901222618 | 94 | 203 | 13.0 | 16.0 | 0.00 | 0.00 | 0.00 | 27 | 1016.6 |
| 20260901222114 | 95 | 203 | 12.0 | 18.0 | 0.00 | 0.00 | 0.00 | 27 | 1016.6 |
| 20260901221610 | 96 | 196 | 13.0 | 16.0 | 0.00 | 0.00 | 0.00 | 27 | 1016.8 |
| 20260901221106 | 95 | 198 | 11.0 | 16.0 | 0.00 | 0.00 | 0.00 | 27 | 1016.8 |
| 20260901220605 | 95 | 159 | 14.0 | 18.0 | 0.00 | 0.00 | 0.00 | 27 | 1016.8 |
| 20260901220104 | 94 | 204 | 11.0 | 18.0 | 0.00 | 0.00 | 0.00 | 28 | 1016.5 |
| 20260901215602 | 94 | 186 | 8.0 | 17.0 | 0.00 | 0.00 | 0.00 | 28 | 1016.8 |
| 20260901215056 | 95 | 185 | 13.0 | 22.0 | 0.00 | 0.00 | 0.00 | 28 | 1016.8 |
| 20260901214555 | 94 | 167 | 11.0 | 16.0 | 0.00 | 0.00 | 0.00 | 28 | 1017.0 |
| 20260901214049 | 95 | 176 | 10.0 | 18.0 | 0.00 | 0.00 | 0.00 | 27 | 1016.9 |
| 20260901213543 | 95 | 181 | 13.0 | 20.0 | 0.00 | 0.00 | 0.00 | 28 | 1017.1 |
| 20260901213038 | 94 | 190 | 10.0 | 10.0 | 0.00 | 0.00 | 0.00 | 28 | 1017.2 |
| 20260901212537 | 95 | 187 | 8.0 | 17.0 | 0.00 | 0.00 | 0.00 | 29 | 1017.3 |
| 20260901212034 | 92 | 174 | 9.0 | 15.0 | 0.00 | 0.00 | 0.00 | 31 | 1017.5 |
| 20260901211529 | 92 | 156 | 13.0 | 18.0 | 0.00 | 0.00 | 0.00 | 31 | 1017.5 |
| 20260901211026 | 94 | 171 | 9.0 | 16.0 | 0.00 | 0.00 | 0.00 | 31 | 1017.3 |
| 20260901210521 | 95 | 162 | 9.0 | 17.0 | 0.00 | 0.00 | 0.00 | 30 | 1017.6 |
| 20260901210017 | 93 | 163 | 12.0 | 20.0 | 0.00 | 0.00 | 0.00 | 31 | 1017.6 |
| 20260901205512 | 93 | 221 | 11.0 | 20.0 | 0.00 | 0.00 | 0.00 | 29 | 1017.8 |
| 20260901205012 | 93 | 195 | 7.0 | 12.0 | 0.00 | 0.00 | 0.00 | 31 | 1017.8 |
| 20260901204508 | 95 | 187 | 14.0 | 22.0 | 0.00 | 0.00 | 0.00 | 30 | 1017.9 |
| 20260901204003 | 94 | 212 | 14.0 | 17.0 | 0.00 | 0.00 | 0.00 | 31 | 1018.0 |
| 20260901203458 | 92 | 209 | 9.0 | 13.0 | 0.00 | 0.00 | 0.00 | 32 | 1018.0 |
| 20260901202958 | 95 | 180 | 10.0 | 18.0 | 0.00 | 0.00 | 0.00 | 30 | 1018.1 |
| 20260901202453 | 94 | 207 | 15.0 | 19.0 | 0.00 | 0.00 | 0.00 | 31 | 1018.4 |
| 20260901201943 | 94 | 190 | 11.0 | 20.0 | 0.00 | 0.00 | 0.00 | 31 | 1018.4 |
| 20260901201438 | 92 | 220 | 9.0 | 12.0 | 0.00 | 0.00 | 0.00 | 32 | 1018.5 |
| 20260901200937 | 93 | 174 | 11.0 | 12.0 | 0.00 | 0.00 | 0.00 | 31 | 1018.2 |
| 20260901200427 | 92 | 171 | 12.0 | 16.0 | 0.00 | 0.00 | 0.00 | 33 | 1018.6 |
| 20260901195926 | 93 | 170 | 11.0 | 15.0 | 0.00 | 0.00 | 0.00 | 32 | 1018.6 |
| 20260901195425 | 94 | 168 | 13.0 | 18.0 | 0.00 | 0.00 | 0.00 | 31 | 1018.7 |
| 20260901194920 | 95 | 161 | 12.0 | 19.0 | 0.00 | 0.00 | 0.00 | 31 | 1018.7 |
| 20260901194415 | 93 | 213 | 20.0 | 24.0 | 0.00 | 0.00 | 0.00 | 32 | 1018.5 |
| 20260901193911 | 92 | 186 | 8.0 | 15.0 | 0.00 | 0.00 | 0.00 | 33 | 1018.7 |
| 20260901193410 | 93 | 179 | 7.0 | 16.0 | 0.00 | 0.00 | 0.00 | 32 | 1018.8 |
| 20260901192909 | 92 | 204 | 12.0 | 15.0 | 0.00 | 0.00 | 0.00 | 33 | 1018.7 |
| 20260901192405 | 91 | 185 | 13.0 | 19.0 | 0.00 | 0.00 | 0.00 | 33 | 1019.0 |
| 20260901191901 | 93 | 160 | 9.0 | 10.0 | 0.00 | 0.00 | 0.00 | 32 | 1019.0 |
| 20260901191356 | 93 | 202 | 13.0 | 20.0 | 0.00 | 0.00 | 0.00 | 32 | 1019.2 |
| 20260901190852 | 93 | 185 | 16.0 | 19.0 | 0.00 | 0.00 | 0.00 | 32 | 1019.1 |
| 20260901190347 | 92 | 213 | 14.0 | 19.0 | 0.00 | 0.00 | 0.00 | 33 | 1019.4 |
| 20260901185845 | 92 | 186 | 17.0 | 18.0 | 0.00 | 0.00 | 0.00 | 33 | 1019.2 |
| 20260901185344 | 91 | 180 | 14.0 | 17.0 | 0.00 | 0.00 | 0.00 | 33 | 1019.2 |
| 20260901184839 | 93 | 195 | 9.0 | 17.0 | 0.00 | 0.00 | 0.00 | 32 | 1019.6 |
| 20260901184335 | 91 | 164 | 11.0 | 13.0 | 0.00 | 0.00 | 0.00 | 34 | 1019.7 |
| 20260901183831 | 93 | 180 | 11.0 | 21.0 | 0.00 | 0.00 | 0.00 | 33 | 1019.6 |
| 20260901183330 | 91 | 160 | 7.0 | 16.0 | 0.00 | 0.00 | 0.00 | 34 | 1019.5 |
| 20260901182826 | 93 | 153 | 8.0 | 18.0 | 0.00 | 0.00 | 0.00 | 31 | 1019.7 |
| 20260901182326 | 93 | 187 | 17.0 | 20.0 | 0.00 | 0.00 | 0.00 | 33 | 1019.8 |
| 20260901181821 | 92 | 152 | 8.0 | 13.0 | 0.00 | 0.00 | 0.00 | 32 | 1020.0 |
| 20260901181315 | 92 | 190 | 11.0 | 17.0 | 0.00 | 0.00 | 0.00 | 33 | 1020.0 |
| 20260901180809 | 92 | 201 | 14.0 | 18.0 | 0.00 | 0.00 | 0.00 | 33 | 1020.0 |
| 20260901180308 | 91 | 151 | 15.0 | 18.0 | 0.00 | 0.00 | 0.00 | 33 | 1020.0 |
| 20260901175807 | 92 | 165 | 12.0 | 17.0 | 0.00 | 0.00 | 0.00 | 32 | 1020.1 |
| 20260901175305 | 90 | 178 | 7.0 | 12.0 | 0.00 | 0.00 | 0.00 | 37 | 1019.9 |
| 20260901174757 | 89 | 189 | 5.0 | 15.0 | 0.00 | 0.00 | 0.00 | 35 | 1020.2 |
| 20260901174253 | 91 | 202 | 15.0 | 19.0 | 0.00 | 0.00 | 0.00 | 34 | 1020.1 |
| 20260901173748 | 88 | 194 | 11.0 | 15.0 | 0.00 | 0.00 | 0.00 | 38 | 1019.9 |
| 20260901173243 | 89 | 205 | 12.0 | 16.0 | 0.00 | 0.00 | 0.00 | 38 | 1020.2 |
| 20260901172740 | 90 | 208 | 13.0 | 18.0 | 0.00 | 0.00 | 0.00 | 38 | 1020.4 |
| 20260901172238 | 89 | 224 | 8.0 | 16.0 | 0.00 | 0.00 | 0.00 | 39 | 1020.4 |
| 20260901171736 | 89 | 212 | 10.0 | 19.0 | 0.00 | 0.00 | 0.00 | 38 | 1020.2 |
| 20260901171236 | 91 | 175 | 9.0 | 14.0 | 0.00 | 0.00 | 0.00 | 38 | 1020.5 |
| 20260901170735 | 89 | 180 | 11.0 | 18.0 | 0.00 | 0.00 | 0.00 | 37 | 1020.4 |
| 20260901170230 | 89 | 234 | 10.0 | 12.0 | 0.00 | 0.00 | 0.00 | 39 | 1020.4 |
| 20260901165728 | 88 | 196 | 12.0 | 17.0 | 0.00 | 0.00 | 0.00 | 39 | 1020.1 |
| 20260901165223 | 89 | 181 | 11.0 | 19.0 | 0.00 | 0.00 | 0.00 | 40 | 1020.4 |
| 20260901164720 | 88 | 215 | 13.0 | 20.0 | 0.00 | 0.00 | 0.00 | 41 | 1020.2 |
| 20260901164215 | 89 | 185 | 11.0 | 20.0 | 0.00 | 0.00 | 0.00 | 42 | 1020.2 |
| 20260901163710 | 89 | 199 | 13.0 | 20.0 | 0.00 | 0.00 | 0.00 | 42 | 1020.2 |
| 20260901163209 | 87 | 199 | 11.0 | 16.0 | 0.00 | 0.00 | 0.00 | 44 | 1020.2 |
| 20260901162705 | 87 | 205 | 10.0 | 20.0 | 0.00 | 0.00 | 0.00 | 45 | 1020.4 |
| 20260901162204 | 87 | 221 | 17.0 | 19.0 | 0.00 | 0.00 | 0.00 | 45 | 1020.1 |
| 20260901161702 | 86 | 208 | 15.0 | 21.0 | 0.00 | 0.00 | 0.00 | 46 | 1020.2 |
| 20260901161157 | 86 | 217 | 11.0 | 22.0 | 0.00 | 0.00 | 0.00 | 46 | 1020.1 |
| 20260901160654 | 85 | 218 | 17.0 | 24.0 | 0.00 | 0.00 | 0.00 | 47 | 1020.1 |
| 20260901160149 | 86 | 212 | 16.0 | 24.0 | 0.00 | 0.00 | 0.00 | 47 | 1019.9 |
| 20260901155648 | 86 | 202 | 15.0 | 21.0 | 0.00 | 0.00 | 0.00 | 47 | 1020.0 |
| 20260901155143 | 85 | 211 | 19.0 | 24.0 | 0.00 | 0.00 | 0.00 | 48 | 1020.0 |
| 20260901154638 | 85 | 206 | 17.0 | 22.0 | 0.00 | 0.00 | 0.00 | 49 | 1020.1 |
| 20260901154132 | 84 | 207 | 13.0 | 22.0 | 0.00 | 0.00 | 0.00 | 49 | 1020.2 |
| 20260901153628 | 85 | 202 | 12.0 | 20.0 | 0.00 | 0.00 | 0.00 | 49 | 1020.1 |
| 20260901153127 | 84 | 206 | 15.0 | 20.0 | 0.00 | 0.00 | 0.00 | 50 | 1020.2 |
| 20260901152623 | 84 | 221 | 10.0 | 22.0 | 0.00 | 0.00 | 0.00 | 51 | 1020.1 |
| 20260901152121 | 83 | 211 | 19.0 | 24.0 | 0.00 | 0.00 | 0.00 | 51 | 1020.1 |
| 20260901151617 | 84 | 211 | 14.0 | 20.0 | 0.00 | 0.00 | 0.00 | 50 | 1020.1 |
| 20260901151116 | 82 | 215 | 21.0 | 23.0 | 0.00 | 0.00 | 0.00 | 52 | 1020.1 |
| 20260901150615 | 82 | 212 | 17.0 | 25.0 | 0.00 | 0.00 | 0.00 | 52 | 1020.2 |
| 20260901150113 | 83 | 213 | 15.0 | 20.0 | 0.00 | 0.00 | 0.00 | 52 | 1020.1 |
| 20260901145607 | 83 | 209 | 14.0 | 22.0 | 0.00 | 0.00 | 0.00 | 52 | 1020.2 |
| 20260901145106 | 82 | 216 | 20.0 | 25.0 | 0.00 | 0.00 | 0.00 | 53 | 1020.2 |
| 20260901144602 | 82 | 213 | 12.0 | 19.0 | 0.00 | 0.00 | 0.00 | 52 | 1020.0 |
| 20260901144056 | 81 | 214 | 15.0 | 22.0 | 0.00 | 0.00 | 0.00 | 53 | 1020.1 |
| 20260901143552 | 81 | 211 | 19.0 | 20.0 | 0.00 | 0.00 | 0.00 | 54 | 1020.1 |
| 20260901143049 | 81 | 210 | 16.0 | 18.0 | 0.00 | 0.00 | 0.00 | 54 | 1020.2 |
| 20260901142544 | 80 | 207 | 10.0 | 14.0 | 0.00 | 0.00 | 0.00 | 53 | 1020.4 |
| 20260901142043 | 80 | 210 | 10.0 | 18.0 | 0.00 | 0.00 | 0.00 | 54 | 1020.1 |
| 20260901141538 | 80 | 189 | 8.0 | 17.0 | 0.00 | 0.00 | 0.00 | 53 | 1020.2 |
| 20260901141033 | 79 | 211 | 11.0 | 17.0 | 0.00 | 0.00 | 0.00 | 55 | 1020.2 |
| 20260901140532 | 79 | 212 | 12.0 | 19.0 | 0.00 | 0.00 | 0.00 | 55 | 1020.0 |
| 20260901140027 | 78 | 213 | 12.0 | 14.0 | 0.00 | 0.00 | 0.00 | 56 | 1020.2 |
| 20260901135525 | 77 | 204 | 11.0 | 18.0 | 0.00 | 0.00 | 0.00 | 57 | 1020.5 |
| 20260901135021 | 78 | 212 | 14.0 | 16.0 | 0.00 | 0.00 | 0.00 | 56 | 1020.2 |
| 20260901134517 | 77 | 214 | 15.0 | 15.0 | 0.00 | 0.00 | 0.00 | 56 | 1020.4 |
| 20260901134012 | 76 | 218 | 11.0 | 19.0 | 0.00 | 0.00 | 0.00 | 58 | 1020.2 |
| 20260901133511 | 76 | 204 | 9.0 | 15.0 | 0.00 | 0.00 | 0.00 | 58 | 1020.2 |
| 20260901133010 | 76 | 216 | 13.0 | 16.0 | 0.00 | 0.00 | 0.00 | 58 | 1020.4 |
| 20260901132509 | 76 | 211 | 11.0 | 15.0 | 0.00 | 0.00 | 0.00 | 58 | 1020.4 |
| 20260901132009 | 75 | 201 | 11.0 | 13.0 | 0.00 | 0.00 | 0.00 | 59 | 1020.4 |
| 20260901131503 | 74 | 198 | 9.0 | 12.0 | 0.00 | 0.00 | 0.00 | 59 | 1020.2 |
| 20260901130959 | 74 | 208 | 9.0 | 11.0 | 0.00 | 0.00 | 0.00 | 60 | 1020.5 |
| 20260901130453 | 74 | 202 | 8.0 | 10.0 | 0.00 | 0.00 | 0.00 | 61 | 1020.2 |
| 20260901125950 | 73 | 194 | 6.0 | 9.0 | 0.00 | 0.00 | 0.00 | 61 | 1020.4 |
| 20260901125451 | 73 | 203 | 8.0 | 8.0 | 0.00 | 0.00 | 0.00 | 61 | 1020.2 |
| 20260901124945 | 73 | 203 | 8.0 | 11.0 | 0.00 | 0.00 | 0.00 | 62 | 1020.0 |
| 20260901124440 | 72 | 191 | 11.0 | 12.0 | 0.00 | 0.00 | 0.00 | 62 | 1019.9 |
| 20260901123935 | 72 | 192 | 6.0 | 11.0 | 0.00 | 0.00 | 0.00 | 62 | 1019.9 |
| 20260901123430 | 72 | 184 | 7.0 | 10.0 | 0.00 | 0.00 | 0.00 | 61 | 1019.9 |
| 20260901122928 | 72 | 188 | 5.0 | 11.0 | 0.00 | 0.00 | 0.00 | 61 | 1019.9 |
| 20260901122428 | 72 | 189 | 7.0 | 10.0 | 0.00 | 0.00 | 0.00 | 61 | 1019.6 |
| 20260901121927 | 73 | 194 | 10.0 | 12.0 | 0.00 | 0.00 | 0.00 | 60 | 1019.5 |
| 20260901121422 | 73 | 188 | 10.0 | 12.0 | 0.00 | 0.00 | 0.00 | 60 | 1019.7 |
| 20260901120918 | 73 | 172 | 8.0 | 13.0 | 0.00 | 0.00 | 0.00 | 59 | 1019.7 |
| 20260901120417 | 73 | 194 | 9.0 | 13.0 | 0.00 | 0.00 | 0.00 | 59 | 1019.7 |
| 20260901115913 | 73 | 191 | 8.0 | 11.0 | 0.00 | 0.00 | 0.00 | 59 | 1019.5 |
| 20260901115412 | 73 | 189 | 12.0 | 12.0 | 0.00 | 0.00 | 0.00 | 58 | 1019.5 |
| 20260901114911 | 73 | 194 | 8.0 | 11.0 | 0.00 | 0.00 | 0.00 | 58 | 1019.7 |
| 20260901114406 | 73 | 180 | 6.0 | 9.0 | 0.00 | 0.00 | 0.00 | 58 | 1019.4 |
| 20260901113904 | 73 | 191 | 8.0 | 10.0 | 0.00 | 0.00 | 0.00 | 58 | 1019.2 |
| 20260901113403 | 73 | 178 | 7.0 | 10.0 | 0.00 | 0.00 | 0.00 | 58 | 1019.1 |
| 20260901112858 | 73 | 182 | 8.0 | 11.0 | 0.00 | 0.00 | 0.00 | 58 | 1019.4 |
| 20260901112353 | 73 | 203 | 8.0 | 11.0 | 0.00 | 0.00 | 0.00 | 57 | 1019.5 |
| 20260901111848 | 73 | 205 | 9.0 | 10.0 | 0.00 | 0.00 | 0.00 | 57 | 1019.6 |
| 20260901111346 | 73 | 206 | 8.0 | 12.0 | 0.00 | 0.00 | 0.00 | 57 | 1019.4 |
| 20260901110845 | 73 | 200 | 8.0 | 11.0 | 0.00 | 0.00 | 0.00 | 57 | 1019.2 |
| 20260901110341 | 73 | 172 | 9.0 | 12.0 | 0.00 | 0.00 | 0.00 | 56 | 1019.4 |
| 20260901105837 | 73 | 178 | 9.0 | 11.0 | 0.00 | 0.00 | 0.00 | 57 | 1019.4 |
| 20260901105332 | 73 | 180 | 7.0 | 10.0 | 0.00 | 0.00 | 0.00 | 57 | 1019.0 |
| 20260901104828 | 73 | 173 | 7.0 | 11.0 | 0.00 | 0.00 | 0.00 | 57 | 1019.0 |
| 20260901104323 | 73 | 160 | 10.0 | 12.0 | 0.00 | 0.00 | 0.00 | 57 | 1019.0 |
| 20260901103819 | 73 | 175 | 7.0 | 11.0 | 0.00 | 0.00 | 0.00 | 57 | 1018.9 |
| 20260901103319 | 73 | 172 | 9.0 | 11.0 | 0.00 | 0.00 | 0.00 | 57 | 1019.0 |
| 20260901102814 | 73 | 178 | 6.0 | 13.0 | 0.00 | 0.00 | 0.00 | 57 | 1018.9 |
| 20260901102308 | 72 | 168 | 7.0 | 8.0 | 0.00 | 0.00 | 0.00 | 57 | 1018.8 |
| 20260901101803 | 73 | 166 | 5.0 | 11.0 | 0.00 | 0.00 | 0.00 | 57 | 1019.1 |
| 20260901101258 | 72 | 166 | 9.0 | 10.0 | 0.00 | 0.00 | 0.00 | 58 | 1018.9 |
| 20260901100757 | 72 | 167 | 6.0 | 10.0 | 0.00 | 0.00 | 0.00 | 57 | 1018.9 |
| 20260901100252 | 72 | 160 | 5.0 | 9.0 | 0.00 | 0.00 | 0.00 | 56 | 1018.9 |
| 20260901095750 | 72 | 164 | 6.0 | 10.0 | 0.00 | 0.00 | 0.00 | 56 | 1018.8 |
| 20260901095248 | 73 | 174 | 7.0 | 10.0 | 0.00 | 0.00 | 0.00 | 56 | 1018.9 |
| 20260901094743 | 73 | 170 | 7.0 | 10.0 | 0.00 | 0.00 | 0.00 | 55 | 1018.9 |
| 20260901094238 | 73 | 180 | 4.0 | 8.0 | 0.00 | 0.00 | 0.00 | 55 | 1019.0 |
| 20260901093733 | 73 | 186 | 7.0 | 8.0 | 0.00 | 0.00 | 0.00 | 55 | 1019.0 |
| 20260901093231 | 73 | 173 | 9.0 | 10.0 | 0.00 | 0.00 | 0.00 | 54 | 1018.9 |
| 20260901092728 | 74 | 167 | 9.0 | 11.0 | 0.00 | 0.00 | 0.00 | 54 | 1019.0 |
| 20260901092224 | 74 | 162 | 9.0 | 13.0 | 0.00 | 0.00 | 0.00 | 53 | 1019.1 |
| 20260901091719 | 74 | 171 | 8.0 | 13.0 | 0.00 | 0.00 | 0.00 | 53 | 1019.0 |
| 20260901091214 | 73 | 156 | 6.0 | 13.0 | 0.00 | 0.00 | 0.00 | 53 | 1019.1 |
| 20260901090709 | 74 | 161 | 11.0 | 15.0 | 0.00 | 0.00 | 0.00 | 52 | 1018.8 |
| 20260901090204 | 74 | 159 | 10.0 | 13.0 | 0.00 | 0.00 | 0.00 | 53 | 1018.8 |
| 20260901085700 | 74 | 158 | 9.0 | 15.0 | 0.00 | 0.00 | 0.00 | 52 | 1018.7 |
| 20260901085155 | 75 | 148 | 9.0 | 17.0 | 0.00 | 0.00 | 0.00 | 51 | 1019.0 |
| 20260901084652 | 75 | 154 | 11.0 | 16.0 | 0.00 | 0.00 | 0.00 | 51 | 1018.8 |
| 20260901084148 | 74 | 157 | 13.0 | 15.0 | 0.00 | 0.00 | 0.00 | 51 | 1018.8 |
| 20260901083647 | 75 | 156 | 10.0 | 16.0 | 0.00 | 0.00 | 0.00 | 51 | 1018.7 |
| 20260901083146 | 75 | 155 | 12.0 | 16.0 | 0.00 | 0.00 | 0.00 | 50 | 1018.7 |
| 20260901082640 | 75 | 158 | 11.0 | 13.0 | 0.00 | 0.00 | 0.00 | 50 | 1018.6 |
| 20260901082136 | 75 | 163 | 9.0 | 15.0 | 0.00 | 0.00 | 0.00 | 50 | 1018.8 |
| 20260901081631 | 75 | 153 | 9.0 | 15.0 | 0.00 | 0.00 | 0.00 | 49 | 1018.8 |